Location: Sternwarte auf dem Internationalen Platz Vogelsang IP
(50.5721°N, 6.4398°E)
Time: 05:46:23
(UTC+01:00)

Transit 2A Rocket - Pass Details

Date: 17 December 2025
Orbit: 581 x 903 km, 66.7° (Epoch: 13 January)

Event Time Altitude Azimuth Distance (km) Brightness Sun altitude
Rises 15:28:28 0° 322° (NW) 3,535 8.3 6.3°
Reaches altitude 10° 15:31:06 10° 327° (NNW) 2,590 7.6 6.0°
Maximum altitude 15:37:02 53° 44° (NE) 1,078 5.5 5.4°
Drops below altitude 10° 15:42:42 10° 122° (ESE) 2,477 7.5 4.8°
Sets 15:45:09 0° 127° (SE) 3,368 8.3 4.5°
